Flag for Germany Weather past 2 weeks in Plauen, Saxony, Germany

Now
45 °F

Light rain. Low clouds.


Feels Like: 41 °F
Forecast: 39 / 42 °F
Wind: 8 mph from Southwest

Location: Hof

Current Time: Dec 19, 2014 at 1:33:21 PM

Latest Report: Dec 19, 2014 at 1:00 PM


Visibility: 14 mi

Pressure: 29.93 "Hg

Humidity: 92%

Dew point: 43 °F

Location of PlauenLocation

Historic Weather in Plauen — Graph

°F

Plauen temperature yesterday

Maximum temperature yesterday: 50 °F (at 11:00 PM)
Minimum temperature yesterday: 36 °F (at 12:00 AM)
Average temperature yesterday: 43 °F

Past Weeks' High & Low Weather Summary

 TemperatureHumidityPressure
High50 °F (Dec 19, 12:00 AM)100% (Dec 4, 12:00 PM)30.49 "Hg (Dec 4, 12:00 PM)
Low26 °F (Dec 9, 8:00 PM)70% (Dec 15, 2:00 PM)29.64 "Hg (Dec 12, 9:00 PM)
Average36 °F94%30.03 "Hg
* Reported Dec 4 12:00 Noon — Dec 19 12:00 Noon, Plauen, Weather by CustomWeather, © 2014

Note: Actual official high and low records may vary slightly from our data, if they occured in-between our weather recording intervals... More about our weather records

Advertising

Plauen weather history for previous 24 hours

 ConditionsComfort  
Time TempWeatherWind HumidityBarometerVisibility
12:00 PM
Dec 19
46 °FLight rain. Low clouds.9 mph91%29.94 "Hg9 mi
11:00 AM45 °FDrizzle. Low clouds.10 mph94%29.94 "Hg9 mi
10:00 AM45 °FDrizzle. Low clouds.9 mph93%29.95 "Hg7 mi
9:00 AM45 °FDrizzle. Low clouds.8 mph96%29.96 "Hg2 mi
8:00 AM45 °FLight rain. Overcast.10 mph96%29.96 "Hg9 mi
7:00 AM46 °FLight rain. Low clouds.10 mph94%29.95 "Hg7 mi
6:00 AM46 °FOvercast.10 mph91%29.96 "Hg9 mi
5:00 AM46 °FLow clouds.8 mph93%29.96 "Hg25 mi
3:00 AM47 °FDrizzle. Low clouds.7 mph95%29.96 "Hg6 mi
2:00 AM47 °FDrizzle. Low clouds.6 mph97%29.96 "Hg3 mi
1:00 AM49 °FOvercast.8 mph88%29.95 "Hg31 mi
12:00 AM50 °FDrizzle. Low clouds.9 mph91%29.93 "Hg19 mi
11:00 PM
Dec 18
50 °FDrizzle. Low clouds.8 mph96%29.91 "Hg5 mi
9:00 PM48 °FRain. Low clouds.8 mph99%29.90 "Hg3 mi
8:00 PM48 °FLight rain. Low clouds.9 mph97%29.90 "Hg9 mi
7:00 PM47 °FLight rain. Low clouds.7 mph97%29.90 "Hg4 mi
6:00 PM46 °FDrizzle. Low clouds.7 mph98%29.91 "Hg4 mi
5:00 PM46 °FDrizzle. Low clouds.6 mph98%29.91 "Hg2 mi
3:00 PM45 °FDrizzle. Low clouds.5 mph98%29.91 "Hg2 mi
2:00 PM45 °FDrizzle. Low clouds.3 mph99%29.90 "Hg2 mi
1:00 PM45 °FLight rain. Low clouds.5 mph97%29.91 "Hg3 mi
Weather by CustomWeather, © 2014

See weather overviewHow to use our weather pages